Вернуться в каталог

COSMOS 2166

АктивенНавигацияPO
NORAD 21780·PAYLOAD·🇷🇺 Russia

Запущен Nov 12, 1991 с Plesetsk Cosmodrome

Loading…

Ближайшие Пролёты (ближайшие 24 часа)

TLE

СвежийSource: Space-Track

Эпоха: Sep 14, 2026, 07:24 UTC

1 21780U 91077B   26257.30870483  .00000024  00000-0  74322-4 0  9995
2 21780  82.6026 189.4790 0003053 339.5101 188.0114 12.63450206606425

Отслеживайте COSMOS 2166 в реальном времени с AllMySat

Download on the App Store